sat.trackr.live / text

‹ back to catalog

STARLINK-34956

NORAD 65174 · 2025-175A

PAYLOAD ACTIVE UNKNOWN

§ Identity

Operator
Country
US
Launch date
2025-08-14
Launch site
AFWTR
Launch vehicle
Mass (kg)
RCS (m²)

Purposes: comms

External: N2YO · Heavens-Above · Gunter

§ Orbital elements

Epoch: 2026-05-25T02:30:08.862336Z

Period
95.64 min
Inclination
97.4520°
Eccentricity
0.0001898
Mean motion
15.05653333 rev/d
Perigee alt
548.2 km
Apogee alt
550.8 km
Semi-major
6,927.6 km
B*
9.0316e-4
RAAN
17.5246°
Arg perigee
79.9232°
Mean anomaly
280.2209°
Rev number
4,410

§ Raw data

STARLINK-349561 65174U 25175A   26145.10426924  .00012998  00000+0  90316-3 0  99992 65174  97.4520  17.5246 0001898  79.9232 280.2209 15.05653333 44101

JSON: /api/v1/satellites/65174 · /tle

For live sub-satellite position, see the globe view (requires WebGL).

§ Visibility from observer

Set your observer location to see the next 7 days of passes ≥ 10°. The values pass through the URL so the page stays shareable.

No JS? Fill the form by hand. The geolocation button needs JavaScript.